Wind_Speed
12 17 20 18 22 12 5 10 14 27 24 25 28 29 10 6 10 8 14 13 17 20 17 23 21 16 22 20 13 11 11 8 8 6 6 6 8 9 11 5 3 3 1 8
15 19 20 19 20 19 16 10 9 8 13 18 18 17 14 12 6 5 8 12 18 19 21 24 25 17 24 22 19 12 8 5 7 6 4 6 10 9 5 3 3 2 4 11
18 21 21 23 25 17 22 19 22 30 15 7 13 13 17 20 22 12 11 18 22 24 23 25 24 23 21 26 22 12 8 6 7 7 6 5 7 6 3 3 3 3 6 11
20 14 19 23 25 23 26 19 18 18 20 11 15 2 27 28 29 25 17 25 26 26 26 25 20 18 20 19 17 14 12 9 9 7 7 5 5 3 0 1 2 5 8 12
21 19 20 21 20 24 23 21 20 19 21 23 14 10 25 26 32 20 3 21 24 29 27 29 24 18 8 13 13 13 13 11 10 6 6 6 5 3 2 1 3 3 12 13
19 19 21 24 18 12 14 12 16 20 22 17 24 21 27 32 17 7 13 25 24 31 27 29 26 22 18 9 12 12 13 12 12 10 9 8 7 5 3 3 3 2 12 16
11 15 17 18 17 20 18 10 15 10 10 9 25 27 28 31 19 10 7 6 33 37 29 30 26 26 24 14 12 11 12 13 13 11 11 10 6 5 5 2 2 2 5 12
21 19 14 17 24 19 10 16 9 4 4 12 26 17 9 22 18 7 13 13 25 41 40 33 22 22 23 17 9 11 13 13 13 11 10 11 7 4 3 2 1 1 2 3
12 17 17 11 17 22 13 11 14 18 26 17 16 7 17 17 12 8 14 8 26 35 43 36 21 21 21 19 12 7 13 14 13 12 10 8 7 5 5 5 5 2 2 4
8 23 18 18 14 5 8 13 18 17 3 6 16 23 16 4 10 8 6 11 19 36 35 26 20 15 15 18 20 13 11 14 12 12 10 8 7 7 6 6 6 5 4 3
14 13 16 13 9 14 15 15 13 14 12 4 3 16 10 22 8 10 13 22 3 17 27 20 17 15 15 16 17 17 14 17 17 14 12 9 7 7 6 7 9 7 6 8
9 9 16 19 11 8 9 15 13 3 13 21 17 21 21 13 13 11 5 7 16 16 8 13 14 16 18 19 21 20 20 18 19 16 13 12 10 8 6 7 10 8 8 10
10 6 13 14 13 17 22 15 19 17 11 17 6 13 18 19 10 15 9 15 12 13 15 15 14 16 18 20 20 20 21 21 23 21 18 16 14 13 11 9 10 10 11 11
13 7 9 18 22 24 22 21 18 18 16 23 25 29 22 18 16 10 10 14 15 16 16 14 6 19 18 23 24 24 22 18 19 27 23 20 17 16 16 15 13 11 13 13
10 9 11 16 19 18 18 20 20 22 20 23 31 29 23 24 19 12 8 9 10 12 16 18 18 9 14 26 29 28 27 25 21 22 30 26 24 22 22 20 17 14 15 15
10 15 17 14 13 17 22 19 17 20 19 21 23 30 27 24 15 8 6 7 14 19 20 15 15 17 20 23 30 33 31 28 27 27 26 31 30 27 25 23 22 17 17 17
17 16 18 21 17 18 19 12 16 20 20 19 23 25 28 23 16 4 10 11 10 9 7 12 13 18 23 23 28 31 33 32 31 29 32 31 34 30 28 27 25 21 19 19
17 16 18 20 18 9 21 18 14 17 15 15 13 7 8 10 14 18 16 16 13 8 11 6 10 19 18 22 26 30 34 34 35 36 35 33 34 32 31 29 24 26 23 22
17 15 18 21 22 22 25 18 18 18 13 16 12 12 12 14 15 18 24 32 39 38 30 14 15 11 25 16 22 31 34 34 31 31 35 34 34 34 32 26 27 29 26 25
15 24 19 17 15 8 21 22 14 14 11 10 13 14 16 16 18 14 18 20 20 14 31 17 15 16 10 29 28 28 35 35 34 32 31 37 38 36 33 28 29 33 29 26
17 16 13 17 20 21 19 14 16 8 8 9 10 11 13 12 8 7 10 12 6 12 17 19 18 16 15 18 28 27 29 33 35 34 33 34 37 38 31 31 36 36 33 28
11 10 14 19 19 11 9 12 12 12 8 3 11 19 17 15 12 15 16 13 17 15 14 14 14 17 17 18 22 21 28 35 38 37 37 32 29 29 30 35 37 38 36 33
9 10 13 13 16 20 22 11 12 15 18 18 12 12 16 19 18 17 21 20 19 20 21 17 13 12 19 22 24 23 25 28 29 27 30 28 27 27 26 31 40 39 41 33
25 23 24 25 30 29 28 28 21 23 24 25 22 18 14 16 21 21 24 32 26 24 29 25 18 16 12 15 26 29 28 30 29 27 27 29 27 28 32 34 32 37 42 30
27 28 32 35 32 34 33 34 32 24 23 26 27 26 23 18 20 26 27 28 33 23 26 30 30 24 18 11 11 18 25 29 31 33 33 34 35 31 33 33 29 35 38 25
28 31 33 39 29 30 33 36 38 38 33 33 28 29 32 25 21 19 22 26 26 20 21 29 30 34 28 24 22 18 15 20 21 22 27 29 26 26 31 25 27 32 36 30
Wind_Direction
235 255 261 280 290 190 240 90 310 281 272 276 251 231 210 213 176 228 231 229 225 219 221 221 232 219 224 247 254 262 228 215 207 166 215 184 191 190 205 209 197 141 210 164
257 265 256 271 279 242 200 249 308 18 224 236 262 221 212 206 148 227 244 251 237 226 221 223 229 236 217 236 247 258 239 218 196 166 194 208 197 195 208 226 231 214 232 181
254 258 260 265 275 222 217 241 299 252 269 284 287 176 181 181 181 182 232 241 254 234 227 227 230 234 228 228 237 236 230 205 207 191 182 178 189 244 263 210 261 197 175 166
260 268 273 279 279 273 254 268 295 316 329 320 322 327 171 178 189 221 307 226 232 237 232 233 230 226 227 225 230 220 219 199 211 189 178 191 150 145 35 41 292 195 175 180
274 272 269 272 283 288 297 297 293 306 316 316 310 297 185 201 215 251 286 215 225 234 234 235 236 236 243 215 201 205 218 208 219 208 204 202 198 205 200 54 333 231 196 193
272 270 271 282 293 290 316 316 296 296 298 300 293 278 194 206 220 244 169 194 219 231 244 238 238 240 246 232 198 194 212 220 218 213 212 216 212 208 201 144 77 28 194 198
256 258 277 263 278 272 284 300 301 300 289 243 286 284 280 223 193 180 164 254 211 228 232 233 232 238 244 252 203 185 200 208 206 206 196 211 217 208 213 168 153 155 176 204
281 290 319 280 248 262 270 274 294 287 275 281 308 308 173 172 189 212 244 241 215 208 225 230 249 243 245 250 220 181 190 200 198 196 184 194 211 199 182 218 273 180 206 192
354 322 309 324 337 245 237 266 298 307 297 306 310 12 149 198 236 270 243 236 182 192 207 226 240 246 242 258 243 203 180 199 196 189 191 188 203 197 203 221 249 285 97 181
346 330 311 313 325 329 288 290 288 293 2 325 311 309 312 304 220 80 215 209 216 197 198 222 233 247 257 262 255 242 201 198 204 190 189 190 199 227 226 230 265 259 257 226
337 323 310 305 329 347 293 242 245 272 263 209 296 299 317 328 285 220 301 156 178 202 201 212 241 252 265 266 263 250 236 206 209 205 193 200 209 230 240 234 254 259 261 272
312 324 322 301 334 346 337 17 4 262 287 260 271 284 310 353 26 220 171 226 150 134 187 206 228 245 259 273 277 274 256 238 220 219 210 208 220 235 246 249 253 261 268 269
321 282 340 306 302 332 346 332 334 336 331 341 321 296 2 22 358 47 178 166 181 186 180 208 212 228 253 264 275 284 271 262 238 226 223 226 233 248 258 258 263 255 257 268
339 330 283 285 298 317 326 316 315 325 316 323 317 329 328 354 344 351 116 139 156 171 188 178 174 224 245 263 271 281 280 272 252 236 236 238 244 253 256 258 263 257 255 263
343 294 295 296 303 313 313 314 305 304 304 306 308 313 315 322 334 301 278 259 232 191 186 190 194 222 239 249 260 266 272 276 264 245 244 245 249 251 255 254 256 263 259 261
269 291 306 306 296 299 307 306 296 296 297 299 302 297 297 310 320 174 131 269 264 267 258 243 228 226 226 238 252 259 266 270 271 270 258 248 248 250 252 250 252 253 260 264
265 275 293 301 297 304 306 285 304 301 303 298 312 290 276 281 271 171 229 192 157 141 261 255 243 224 234 232 244 254 260 268 271 270 266 256 249 251 251 248 245 248 258 264
265 261 269 278 287 281 284 302 307 310 297 301 305 307 322 306 294 250 250 233 231 280 294 282 224 204 203 226 236 250 256 260 265 266 259 253 250 253 253 252 245 247 252 259
250 243 250 259 265 278 288 283 322 335 312 313 322 314 306 306 314 286 272 272 247 266 349 322 287 249 216 211 239 243 253 259 266 266 253 245 249 251 254 255 249 249 251 256
292 245 238 248 249 257 287 307 313 307 283 312 302 292 289 288 302 319 317 339 336 328 279 281 286 276 269 218 236 245 250 264 269 271 269 254 250 251 255 244 250 254 249 250
288 270 258 267 273 282 291 302 282 293 355 335 324 309 298 299 305 298 313 317 314 258 271 283 272 278 253 236 231 237 252 261 268 270 272 264 260 262 258 242 246 252 243 241
303 303 282 281 292 289 309 315 343 309 278 295 303 288 294 284 252 254 265 273 289 293 286 287 270 249 242 248 242 244 258 257 260 265 271 272 271 268 252 244 242 246 239 237
298 312 309 287 272 267 280 302 278 293 295 290 280 303 290 284 271 251 253 265 274 276 277 285 283 269 242 243 253 250 257 263 268 267 265 275 266 261 251 248 249 245 239 240
260 257 282 279 255 264 267 277 281 271 282 283 269 270 268 281 269 269 272 282 284 273 277 271 272 275 267 255 244 252 251 260 266 271 269 264 266 254 251 248 247 241 247 243
261 268 266 264 268 271 267 264 271 271 265 265 261 256 258 254 267 274 275 277 287 281 268 273 264 265 272 281 267 253 257 259 261 261 269 263 263 256 252 251 256 242 253 235
281 276 271 276 286 283 278 271 265 262 260 271 274 257 248 244 254 269 277 278 284 292 266 264 272 267 256 272 293 292 269 264 265 271 266 264 263 252 256 246 246 244 252 242
Height
3167 3171 3169 3168 3168 3168 3168 3170 3177 3171 3164 3170 3162 3165 3166 3168 3171 3170 3172 3172 3175 3178 3181 3181 3182 3184 3184 3185 3185 3189 3188 3189 3192 3193 3192 3193 3195 3196 3196 3197 3200 3200 3202 3203
3166 3165 3167 3166 3164 3167 3166 3166 3168 3168 3166 3167 3158 3161 3164 3166 3167 3172 3173 3175 3178 3179 3179 3180 3181 3182 3181 3182 3183 3185 3187 3188 3190 3192 3193 3192 3193 3195 3196 3197 3198 3200 3200 3202
3163 3164 3165 3164 3162 3164 3162 3163 3167 3163 3155 3161 3159 3159 3164 3170 3171 3168 3170 3173 3173 3174 3176 3176 3178 3179 3179 3179 3181 3183 3185 3188 3189 3191 3192 3192 3192 3194 3195 3195 3198 3199 3199 3201
3160 3161 3161 3161 3160 3163 3160 3158 3159 3156 3156 3156 3158 3161 3162 3161 3160 3159 3159 3159 3165 3168 3173 3174 3175 3176 3177 3177 3179 3181 3184 3187 3188 3189 3191 3192 3192 3194 3195 3195 3196 3197 3199 3200
3157 3157 3158 3158 3158 3157 3156 3155 3154 3154 3154 3155 3157 3158 3160 3159 3156 3158 3157 3162 3163 3165 3169 3170 3170 3174 3175 3175 3177 3180 3181 3184 3185 3187 3189 3191 3192 3193 3193 3194 3195 3196 3197 3198
3154 3153 3154 3155 3154 3153 3153 3152 3152 3153 3153 3154 3153 3153 3152 3149 3154 3156 3154 3153 3158 3164 3165 3165 3167 3171 3173 3175 3175 3177 3180 3182 3184 3185 3187 3188 3190 3192 3192 3193 3194 3194 3195 3197
3152 3151 3150 3151 3152 3152 3152 3153 3153 3153 3151 3150 3146 3145 3142 3144 3149 3150 3151 3157 3159 3161 3161 3161 3164 3166 3169 3171 3173 3175 3178 3180 3182 3183 3185 3186 3187 3189 3192 3192 3193 3193 3194 3196
3151 3150 3150 3152 3148 3149 3150 3152 3154 3155 3153 3145 3143 3141 3136 3141 3143 3144 3144 3142 3148 3155 3159 3157 3159 3162 3165 3167 3171 3173 3177 3179 3181 3182 3183 3185 3186 3187 3189 3190 3191 3193 3194 3194
3149 3145 3144 3145 3146 3145 3148 3149 3151 3148 3145 3143 3142 3145 3142 3141 3141 3142 3139 3138 3135 3146 3150 3153 3157 3159 3162 3164 3168 3172 3175 3178 3179 3181 3182 3184 3185 3186 3187 3188 3189 3190 3192 3193
3151 3147 3145 3145 3144 3145 3146 3149 3148 3147 3150 3149 3140 3139 3141 3142 3142 3143 3139 3142 3144 3146 3147 3154 3156 3157 3160 3162 3165 3169 3174 3176 3179 3180 3182 3183 3185 3185 3186 3187 3186 3187 3189 3189
3150 3150 3148 3146 3147 3145 3144 3144 3146 3146 3147 3147 3149 3141 3142 3140 3137 3134 3133 3137 3148 3141 3148 3153 3153 3155 3158 3160 3162 3166 3171 3173 3175 3178 3180 3182 3183 3184 3184 3185 3185 3186 3186 3186
3152 3151 3148 3144 3146 3143 3142 3142 3143 3143 3145 3142 3140 3138 3141 3139 3135 3133 3133 3137 3142 3144 3150 3152 3153 3155 3156 3158 3159 3161 3166 3171 3173 3176 3178 3179 3180 3181 3182 3183 3183 3183 3184 3184
3151 3151 3149 3143 3142 3141 3143 3143 3142 3141 3140 3140 3140 3139 3138 3138 3137 3136 3136 3135 3140 3144 3147 3147 3149 3151 3152 3154 3156 3158 3161 3166 3170 3172 3174 3175 3177 3178 3179 3180 3181 3182 3181 3181
3150 3150 3152 3151 3149 3148 3144 3141 3141 3141 3140 3140 3138 3136 3134 3138 3138 3139 3140 3141 3141 3140 3143 3146 3146 3148 3150 3149 3151 3153 3156 3160 3165 3168 3169 3172 3172 3174 3176 3176 3178 3178 3179 3178
3149 3149 3149 3148 3146 3144 3143 3141 3140 3139 3140 3139 3135 3136 3133 3135 3137 3135 3136 3137 3139 3141 3141 3141 3143 3143 3145 3146 3146 3148 3151 3154 3159 3162 3164 3166 3168 3169 3170 3172 3173 3174 3175 3176
3146 3145 3145 3144 3144 3143 3142 3140 3139 3138 3138 3136 3135 3132 3133 3133 3130 3130 3131 3134 3133 3135 3138 3139 3138 3138 3138 3140 3141 3142 3145 3148 3151 3155 3158 3160 3161 3163 3164 3167 3168 3170 3171 3171
3143 3143 3143 3141 3142 3141 3139 3137 3137 3137 3134 3134 3132 3130 3129 3125 3127 3128 3126 3125 3121 3119 3132 3128 3129 3131 3130 3132 3135 3136 3139 3142 3145 3147 3149 3151 3153 3155 3157 3161 3164 3167 3168 3167
3138 3140 3141 3139 3140 3139 3135 3134 3135 3133 3132 3130 3128 3127 3125 3122 3121 3122 3122 3120 3117 3123 3129 3126 3122 3120 3122 3125 3127 3130 3133 3135 3138 3140 3141 3142 3144 3147 3151 3155 3162 3162 3162 3162
3133 3134 3135 3135 3136 3134 3132 3131 3133 3131 3130 3126 3124 3123 3122 3120 3120 3120 3119 3119 3118 3091 3106 3122 3121 3117 3117 3119 3120 3124 3126 3129 3132 3131 3132 3133 3135 3138 3143 3149 3153 3156 3155 3156
3131 3129 3131 3131 3130 3129 3129 3127 3127 3126 3126 3122 3118 3117 3118 3118 3118 3116 3113 3113 3113 3115 3126 3122 3118 3116 3115 3116 3117 3118 3120 3122 3124 3124 3124 3125 3127 3131 3137 3141 3146 3147 3149 3149
3126 3126 3126 3126 3126 3126 3126 3123 3121 3121 3126 3121 3117 3116 3115 3116 3115 3113 3110 3110 3118 3119 3115 3111 3114 3112 3112 3113 3114 3115 3116 3116 3116 3117 3117 3117 3120 3125 3130 3134 3136 3139 3142 3142
3123 3122 3122 3122 3122 3123 3120 3119 3120 3120 3118 3115 3117 3114 3113 3114 3114 3110 3110 3109 3108 3107 3109 3109 3108 3107 3108 3111 3108 3110 3111 3110 3109 3110 3110 3112 3115 3116 3119 3123 3129 3130 3133 3132
3119 3120 3119 3120 3117 3116 3114 3116 3117 3115 3113 3112 3111 3109 3107 3107 3105 3104 3106 3106 3105 3105 3106 3105 3105 3105 3104 3104 3102 3103 3104 3105 3104 3103 3105 3103 3105 3108 3111 3115 3118 3122 3123 3123
3112 3113 3109 3109 3108 3108 3109 3107 3108 3108 3105 3104 3106 3104 3102 3101 3100 3099 3097 3098 3103 3101 3099 3100 3101 3101 3099 3098 3098 3098 3095 3096 3099 3097 3098 3097 3099 3101 3101 3103 3110 3113 3113 3115
3108 3106 3103 3099 3100 3100 3101 3100 3098 3098 3098 3096 3097 3097 3096 3094 3091 3089 3089 3091 3093 3094 3093 3092 3093 3095 3094 3093 3093 3089 3088 3089 3089 3091 3089 3090 3091 3093 3094 3098 3105 3105 3106 3111
3098 3096 3096 3090 3094 3092 3090 3089 3089 3089 3089 3088 3087 3088 3088 3085 3084 3083 3082 3081 3084 3086 3088 3086 3085 3084 3088 3088 3086 3086 3082 3082 3082 3082 3082 3082 3084 3086 3088 3091 3096 3098 3100 3102